Location: �perlecques
(50.8057°N, 2.1521°E)
Time: 06:49:39
(UTC+00:00)

Vanguard 1 Rocket - Pass Details

Date: 06 August 2021
Orbit: 650 x 4226 km, 34.3° (Epoch: 22 September)

Event Time Altitude Azimuth Distance (km) Brightness Sun altitude
Rises 13:01:16 0° 268° (W) 7,167 12.2 53.4°
Reaches altitude 10° 13:07:45 10° 259° (WSW) 5,499 11.9 52.9°
Maximum altitude 13:18:37 26° 211° (SSW) 3,114 11.5 52.1°
Drops below altitude 10° 13:25:26 10° 159° (SSE) 3,318 10.7 51.5°
Sets 13:28:13 0° 145° (SE) 3,932 10.8 51.2°
